Time,TemperatureF,DewpointF,PressureIn,WindDirection,WindDirectionDegrees,WindSpeedMPH,WindSpeedGustMPH,Humidity,HourlyPrecipIn,Conditions,Clouds,dailyrainin,SoftwareType,DateUTC
2013-01-15 01:33:00,47.0,-99.9,-100.00,East,80,3.0,9.0,-999,-99.99,,,-99.99,,2013-01-15 09:33:00,
2013-01-15 01:43:00,47.0,-99.9,-100.00,East,80,3.0,9.0,-999,-99.99,,,-99.99,,2013-01-15 09:43:00,
2013-01-15 01:53:00,47.0,-99.9,-100.00,East,80,3.0,9.0,-999,-99.99,,,-99.99,,2013-01-15 09:53:00,
2013-01-15 02:10:00,44.0,-99.9,-100.00,East,88,3.0,8.0,-999,-99.99,,,-99.99,,2013-01-15 10:10:00,
2013-01-15 02:52:00,44.0,-99.9,-100.00,East,88,3.0,8.0,-999,-99.99,,,-99.99,,2013-01-15 10:52:00,
2013-01-15 03:03:00,44.0,-99.9,-100.00,East,88,3.0,8.0,-999,-99.99,,,-99.99,,2013-01-15 11:03:00,
2013-01-15 05:10:00,44.0,-99.9,-100.00,SSE,150,0.0,1.0,-999,-99.99,,,-99.99,,2013-01-15 13:10:00,
2013-01-15 05:53:00,44.0,-99.9,-100.00,SSE,150,0.0,1.0,-999,-99.99,,,-99.99,,2013-01-15 13:53:00,
2013-01-15 06:03:00,44.0,-99.9,-100.00,SSE,150,0.0,1.0,-999,-99.99,,,-99.99,,2013-01-15 14:03:00,
2013-01-15 06:23:00,43.0,-99.9,-100.00,ESE,106,0.0,1.0,-999,-99.99,,,-99.99,,2013-01-15 14:23:00,
2013-01-15 06:33:00,43.0,-99.9,-100.00,ESE,105,0.0,5.0,-999,-99.99,,,-99.99,,2013-01-15 14:33:00,
2013-01-15 06:43:00,43.0,-99.9,-100.00,ESE,105,0.0,5.0,-999,-99.99,,,-99.99,,2013-01-15 14:43:00,
2013-01-15 07:10:00,44.0,-99.9,-100.00,ESE,114,1.0,1.0,-999,-99.99,,,-99.99,,2013-01-15 15:10:00,
2013-01-15 07:53:00,44.0,-99.9,-100.00,ESE,114,1.0,1.0,-999,-99.99,,,-99.99,,2013-01-15 15:53:00,
2013-01-15 08:03:00,44.0,-99.9,-100.00,ESE,114,1.0,1.0,-999,-99.99,,,-99.99,,2013-01-15 16:03:00,
2013-01-15 09:53:00,51.0,-99.9,-100.00,ENE,78,2.0,9.0,-999,-99.99,,,-99.99,,2013-01-15 17:53:00,
2013-01-15 10:03:00,51.0,-99.9,-100.00,ENE,78,2.0,9.0,-999,-99.99,,,-99.99,,2013-01-15 18:03:00,
2013-01-15 10:13:00,51.0,-99.9,-100.00,ENE,78,2.0,9.0,-999,-99.99,,,-99.99,,2013-01-15 18:13:00,
2013-01-15 10:34:00,51.0,-99.9,-100.00,ENE,71,1.0,14.0,-999,-99.99,,,-99.99,,2013-01-15 18:34:00,
2013-01-15 10:43:00,51.0,-99.9,-100.00,ENE,71,1.0,14.0,-999,-99.99,,,-99.99,,2013-01-15 18:43:00,
2013-01-15 10:54:00,51.0,-99.9,-100.00,ENE,71,1.0,14.0,-999,-99.99,,,-99.99,,2013-01-15 18:54:00,
2013-01-15 11:04:00,52.0,-99.9,-100.00,South,172,1.0,7.0,-999,-99.99,,,-99.99,,2013-01-15 19:04:00,
2013-01-15 11:13:00,52.0,-99.9,-100.00,South,172,1.0,7.0,-999,-99.99,,,-99.99,,2013-01-15 19:13:00,
2013-01-15 11:23:00,54.0,-99.9,-100.00,ENE,77,3.0,5.0,-999,-99.99,,,-99.99,,2013-01-15 19:23:00,
2013-01-15 11:33:00,54.0,-99.9,-100.00,ENE,77,3.0,5.0,-999,-99.99,,,-99.99,,2013-01-15 19:33:00,
2013-01-15 12:00:00,56.0,-99.9,-100.00,NW,324,1.0,9.0,-999,-99.99,,,-99.99,,2013-01-15 20:00:00,
2013-01-15 12:34:00,56.0,-99.9,-100.00,NW,324,1.0,9.0,-999,-99.99,,,-99.99,,2013-01-15 20:34:00,
2013-01-15 12:40:00,60.0,-99.9,-100.00,West,279,0.0,6.0,-999,-99.99,,,-99.99,,2013-01-15 20:40:00,
2013-01-15 12:44:00,56.0,-99.9,-100.00,NW,324,1.0,9.0,-999,-99.99,,,-99.99,,2013-01-15 20:44:00,
2013-01-15 12:53:00,56.0,-99.9,-100.00,NW,324,1.0,9.0,-999,-99.99,,,-99.99,,2013-01-15 20:53:00,
2013-01-15 13:23:00,60.0,-99.9,-100.00,West,279,0.0,6.0,-999,-99.99,,,-99.99,,2013-01-15 21:23:00,
2013-01-15 13:34:00,60.0,-99.9,-100.00,West,279,0.0,6.0,-999,-99.99,,,-99.99,,2013-01-15 21:34:00,
2013-01-15 14:30:00,58.0,-99.9,-100.00,ENE,77,9.0,9.0,-999,-99.99,,,-99.99,,2013-01-15 22:30:00,
2013-01-15 15:03:00,58.0,-99.9,-100.00,South,171,2.0,12.0,-999,-99.99,,,-99.99,,2013-01-15 23:03:00,
2013-01-15 15:13:00,58.0,-99.9,-100.00,South,171,2.0,12.0,-999,-99.99,,,-99.99,,2013-01-15 23:13:00,
2013-01-15 15:20:00,58.0,-99.9,-100.00,SE,141,6.0,11.0,-999,-99.99,,,-99.99,,2013-01-15 23:20:00,
2013-01-15 15:23:00,58.0,-99.9,-100.00,ENE,77,9.0,9.0,-999,-99.99,,,-99.99,,2013-01-15 23:23:00,
2013-01-15 15:53:00,58.0,-99.9,-100.00,ENE,78,2.0,11.0,-999,-99.99,,,-99.99,,2013-01-15 23:53:00,
2013-01-15 16:03:00,58.0,-99.9,-100.00,SE,141,6.0,11.0,-999,-99.99,,,-99.99,,2013-01-16 00:03:00,
2013-01-15 16:10:00,56.0,-99.9,-100.00,East,92,12.0,13.0,-999,-99.99,,,-99.99,,2013-01-16 00:10:00,
2013-01-15 16:13:00,58.0,-99.9,-100.00,SE,141,6.0,11.0,-999,-99.99,,,-99.99,,2013-01-16 00:13:00,
2013-01-15 16:53:00,56.0,-99.9,-100.00,East,92,12.0,13.0,-999,-99.99,,,-99.99,,2013-01-16 00:53:00,
2013-01-15 17:03:00,56.0,-99.9,-100.00,East,92,12.0,13.0,-999,-99.99,,,-99.99,,2013-01-16 01:03:00,
2013-01-15 17:30:00,52.0,-99.9,-100.00,East,90,7.0,12.0,-999,-99.99,,,-99.99,,2013-01-16 01:30:00,
2013-01-15 18:03:00,52.0,-99.9,-100.00,East,90,7.0,12.0,-999,-99.99,,,-99.99,,2013-01-16 02:03:00,
2013-01-15 18:12:00,52.0,-99.9,-100.00,East,90,7.0,12.0,-999,-99.99,,,-99.99,,2013-01-16 02:12:00,
2013-01-15 18:23:00,52.0,-99.9,-100.00,East,90,7.0,12.0,-999,-99.99,,,-99.99,,2013-01-16 02:23:00,
2013-01-15 19:03:00,51.0,-99.9,-100.00,East,79,10.0,10.0,-999,-99.99,,,-99.99,,2013-01-16 03:03:00,
2013-01-15 19:12:00,51.0,-99.9,-100.00,East,79,10.0,10.0,-999,-99.99,,,-99.99,,2013-01-16 03:12:00,
2013-01-15 19:23:00,51.0,-99.9,-100.00,East,79,10.0,10.0,-999,-99.99,,,-99.99,,2013-01-16 03:23:00,
2013-01-15 19:50:00,50.0,-99.9,-100.00,East,79,1.0,1.0,-999,-99.99,,,-99.99,,2013-01-16 03:50:00,
2013-01-15 20:33:00,50.0,-99.9,-100.00,East,79,1.0,1.0,-999,-99.99,,,-99.99,,2013-01-16 04:33:00,
2013-01-15 20:42:00,50.0,-99.9,-100.00,East,79,1.0,1.0,-999,-99.99,,,-99.99,,2013-01-16 04:42:00,
2013-01-15 22:22:00,48.0,-99.9,-100.00,South,190,0.0,0.0,-999,-99.99,,,-99.99,,2013-01-16 06:22:00,
2013-01-15 22:33:00,48.0,-99.9,-100.00,South,190,0.0,0.0,-999,-99.99,,,-99.99,,2013-01-16 06:33:00,